Location: La Chapelle
(48.3135°N, 1.3085°W)
Time: 11:17:28
(UTC+00:00)

SJ 16-02 - Pass Details

Date: 03 March 2021
Orbit: 605 x 617 km, 75.0° (Epoch: 11 April)

Event Time Altitude Azimuth Distance (km) Brightness Sun altitude
Rises 19:33:30 0° 346° (NNW) 2,884 5.1 -17.5°
Reaches altitude 10° 19:36:02 10° 359° (N) 1,977 4.1 -17.9°
Enters shadow 19:39:33 27° 52° (NE) 1,192 2.5 -18.5°
